[[{"header":{"parameterUnit":"m.s-1","parameterCategory":1,"la1":30.2991,"la2":30.254,"lo1":-89.0895,"lo2":-89.0444,"dy":0.0017,"dx":0.0017,"nx":28,"ny":28,"refTime":"2024-05-01T21:00:00:Z","depth":0,"parameterNumber":2,"parameterNumberName":"U-component_of_WINDS"},"data":[0,0,0,0,0,0,0,0,0,0,0,0,0,0,0,0,0,0,0,0,0,0,0,0,0,0,0,0,0,0,0,0,0,0,0,0,0,0,0,0,0,0,0,0,0,0,0,0,0,0,0,0,0,0,0,0,0,0,-2.9299,-2.93,0,-2.9368,-2.9369,-2.937,-2.9356,-2.9355,-2.9354,-2.9352,-2.9423,-2.9426,-2.9429,0,0,0,0,0,0,0,0,0,0,0,0,0,-2.9156,-2.9159,-2.9299,-2.93,-2.9301,-2.9368,-2.9369,-2.937,-2.9356,-2.9355,-2.9353,-2.9352,-2.9422,-2.9426,-2.943,0,0,0,0,0,0,0,0,0,0,0,0,0,-2.9221,-2.916,-2.9299,-2.9302,-2.9303,-2.9368,-2.9369,-2.937,-2.9357,-2.9355,-2.9353,-2.9351,-2.9421,-2.9426,-2.943,-2.9496,0,0,-2.9444,-2.9446,0,0,0,0,0,0,0,0,-2.9217,-2.9226,-2.9301,-2.9302,-2.9303,-2.9352,-2.9345,-2.9413,-2.9357,-2.9336,-2.9352,-2.935,-2.9401,-2.9407,-2.9424,-2.95,-2.9503,-2.9445,-2.9447,-2.9449,-2.9451,0,0,0,0,0,0,0,-2.9213,-2.9223,-2.9327,-2.9302,-2.9304,-2.93,-2.9308,-2.9358,-2.9378,-2.9338,-2.9337,-2.9346,-2.9401,-2.942,-2.9426,-2.9504,-2.9444,-2.9448,-2.9451,-2.9453,-2.9637,-2.9639,0,0,0,0,0,0,-2.9207,-2.922,-2.9324,-2.9329,-2.9255,-2.9305,-2.9312,-2.9338,-2.9378,-2.9382,-2.9347,-2.9345,-2.9413,-2.942,-2.9428,-2.9508,-2.9449,-2.9454,-2.9456,-2.9635,-2.9638,-2.964,0,0,0,0,0,0,-2.9204,-2.9217,-2.9322,-2.9274,-2.9287,-2.9309,-2.9338,-2.934,-2.9359,-2.9385,-2.9388,-2.9362,-2.9412,-2.9422,-2.948,-2.951,-2.9456,-2.946,-2.9633,-2.9636,-2.9639,-2.9669,0,0,0,0,0,0,-2.92,-2.9216,-2.9241,-2.9275,-2.929,-2.9372,-2.934,-2.9343,-2.9367,-2.9364,-2.94,-2.9404,-2.9411,-2.9473,-2.9484,-2.9516,-2.9463,-2.963,-2.9634,-2.9638,-2.9665,-2.9672,-2.9679,0,0,0,0,0,-2.9195,-2.9246,-2.9242,-2.9255,-2.9322,-2.9373,-2.9382,-2.9389,-2.9369,-2.9395,-2.9412,-2.9403,-2.9506,-2.9479,-2.9491,-2.9525,-2.9628,-2.9633,-2.9638,-2.9662,-2.9671,-2.9679,0,0,0,0,0,0,-2.9215,-2.9251,-2.9246,-2.931,-2.9339,-2.9371,-2.9403,-2.9399,-2.9433,-2.943,-2.9437,-2.9445,-2.9504,-2.952,-2.949,-2.9591,-2.9564,-2.9572,-2.9578,-2.9587,-2.9594,-2.9588,-2.9467,0,0,0,0,0,-2.9227,-2.9266,-2.9295,-2.9349,-2.9364,-2.9381,-2.9404,-2.9407,-2.9437,-2.9449,-2.947,-2.95,-2.9538,-2.9564,-2.9601,-2.9668,-2.9675,-2.9697,-2.9704,-2.971,-2.9716,-2.9752,-2.9762,-2.9656,-2.9656,-2.9656,0,0,-2.9252,-2.9277,-2.9301,-2.9354,-2.9376,-2.9417,-2.9391,-2.9435,-2.9465,-2.9456,-2.9511,-2.9528,-2.9562,-2.9624,-2.9653,-2.9639,-2.9747,-2.9716,-2.972,-2.9723,-2.9758,-2.9768,-2.9777,-2.9659,-2.9658,-2.9658,0,0,-2.9318,-2.9341,-2.9388,-2.9411,-2.9446,-2.9457,-2.9469,-2.9502,-2.9512,-2.9568,-2.9562,-2.9598,-2.9665,-2.9689,-2.971,-2.9787,-2.978,-2.9799,-2.9835,-2.987,-2.9879,-2.9886,-2.9913,-2.9922,-2.9805,-2.9805,-2.9805,0,-2.9345,-2.9405,-2.9412,-2.9457,-2.948,-2.9474,-2.9522,-2.9545,-2.959,-2.9606,-2.9591,-2.9675,-2.9697,-2.9765,-2.9784,-2.9802,-2.9815,-2.9794,-2.9877,-2.9884,-2.9892,-2.9917,-2.9927,-2.9807,-2.9807,-2.9807,-2.9807,0,-2.9436,-2.9478,-2.9512,-2.9556,-2.9583,-2.9629,-2.9644,-2.9671,-2.9672,-2.9685,-2.9743,-2.9769,-2.9812,-2.9829,-2.983,-2.9897,-2.9888,-2.9875,-2.9847,-2.9904,-2.9928,-2.9938,-2.981,-2.981,-2.9809,-2.9808,0,0,-2.9515,-2.9563,-2.9575,-2.9595,-2.9634,-2.9666,-2.9712,-2.9754,-2.9777,-2.9809,-2.9847,-2.9905,-2.9893,-2.9917,-2.9922,-2.9953,-3.0011,-2.9936,-2.9937,-2.9949,-3.0086,-3.0095,-3.0106,-3.0008,-3.001,-3.0011,-3.0083,0,-2.9584,-2.9665,-2.9673,-2.9745,-2.9784,-2.978,-2.982,-2.9848,-2.9862,-2.9897,-2.9913,-2.9953,-2.9935,-2.9949,-2.998,-2.9998,-3.0039,-2.9993,-3.0043,-3.0045,-3.0034,-3.0119,-3.0128,-3.0195,-3.0093,-3.0095,-3.0096,0,-2.9675,-2.9709,-2.9785,-2.9819,-2.9835,-2.9871,-2.991,-2.9944,-2.9976,-2.9984,-3.0011,-3.0012,-3.006,-3.0031,-3.0097,-3.0065,-3.0087,-3.0099,-3.0101,-3.0105,-3.0073,-3.0125,-3.0217,-3.0227,-3.0111,-3.011,-3.0109,0,-2.9725,-2.979,-2.9844,-2.9861,-2.9901,-2.9927,-2.9945,-2.9975,-2.9999,-3.0034,-3.005,-3.009,-3.0111,-3.0142,-3.0154,-3.0132,-3.0219,-3.0191,-3.0226,-3.0226,-3.0244,-3.0242,-3.034,-3.0259,-3.0259,-3.0259,-3.0259,0,-2.98,-2.9847,-2.9867,-2.99,-2.9952,-2.9962,-3.0013,-3.003,-3.0057,-3.0093,-3.0092,-3.0127,-3.014,-3.0177,-3.0186,-3.0239,-3.0249,-3.0257,-3.0258,-3.0256,-3.0255,-3.0269,-3.0265,-3.0262,-3.0261,-3.0261,-3.026,0,-2.9864,-2.9879,-2.9938,-2.9971,-2.9981,-3.0018,-3.0046,-3.0078,-3.0092,-3.0138,-3.015,-3.0172,-3.0215,-3.0229,-3.0282,-3.0288,-3.0349,-3.0348,-3.0338,-3.0338,-3.0373,-3.0369,-3.0482,-3.0497,-3.0407,-3.0408,-3.0409,0,-2.9911,-2.9946,-2.9984,-3.0008,-3.0027,-3.0066,-3.0091,-3.0103,-3.0129,-3.0168,-3.0196,-3.0239,-3.0273,-3.0342,-3.0363,-3.0403,-3.0402,-3.0439,-3.0408,-3.0404,-3.0401,-3.0399,-3.0402,-3.0444,-3.0445,-3.0446,-3.0446,0,-2.9992,-2.9998,-3.0034,-3.0073,-3.0103,-3.0135,-3.0165,-3.0186,-3.0201,-3.0231,-3.0275,-3.0302,-3.0356,-3.0398,-3.0439,-3.0458,-3.0455,-3.0456,-3.0466,-3.0464,-3.0457,-3.046,-3.0353,-3.0453,-3.0452,-3.0452,-3.0451,-3.0451,-3.0048,-3.008,-3.0111,-3.0151,-3.0176,-3.0204,-3.0236,-3.0254,-3.0291,-3.0335,-3.034,-3.0387,-3.0419,-3.0473,-3.0494,-3.0532,-3.0521,-3.0536,-3.054,-3.0543,-3.0545,-3.0452,-3.0539,-3.0539,-3.0539,-3.0539,-3.0539,0,-3.0129,-3.0149,-3.0186,-3.0229,-3.0261,-3.0255,-3.0289,-3.0316,-3.0358,-3.0387,-3.0422,-3.0472,-3.0514,-3.0538,-3.0579,-3.0605,-3.0604,-3.0615,-3.0613,-3.0617,-3.0552,-3.0539,-3.0615,-3.0615,-3.0615,-3.0615,-3.0615,-3.0615,-3.0174,-3.0227,-3.0237,-3.0302,-3.0322,-3.0368,-3.0387,-3.0414,-3.0438,-3.0494,-3.0528,-3.0544,-3.0572,-3.0615,-3.0653,-3.0659,-3.0674,-3.0686,-3.0691,-3.063,-3.0622,-3.0614,-3.0602,-3.0689,-3.0689,-3.0753,-3.0753,-3.0754]},{"header":{"parameterUnit":"m.s-1","parameterCategory":1,"la1":30.2991,"la2":30.254,"lo1":-89.0895,"lo2":-89.0444,"dy":0.0017,"dx":0.0017,"nx":28,"ny":28,"refTime":"2024-05-01T21:00:00:Z","depth":0,"parameterNumber":3,"parameterNumberName":"V-component_of_WINDS"},"data":[0,0,0,0,0,0,0,0,0,0,0,0,0,0,0,0,0,0,0,0,0,0,0,0,0,0,0,0,0,0,0,0,0,0,0,0,0,0,0,0,0,0,0,0,0,0,0,0,0,0,0,0,0,0,0,0,0,0,4.0877,4.0877,0,4.0874,4.0874,4.0874,4.0803,4.0801,4.0799,4.0797,4.0794,4.0796,4.0797,0,0,0,0,0,0,0,0,0,0,0,0,0,4.0818,4.082,4.0877,4.0877,4.0877,4.0874,4.0874,4.0874,4.0803,4.0801,4.0798,4.0796,4.0794,4.0795,4.0797,0,0,0,0,0,0,0,0,0,0,0,0,0,4.0833,4.082,4.0877,4.0841,4.0837,4.0875,4.0874,4.0874,4.0803,4.0801,4.0798,4.0795,4.0793,4.0795,4.0798,4.0869,0,0,4.0805,4.0806,0,0,0,0,0,0,0,0,4.0832,4.0835,4.0846,4.0843,4.084,4.0836,4.0853,4.0873,4.0804,4.0816,4.0797,4.0794,4.081,4.0811,4.0817,4.0869,4.0869,4.0805,4.0807,4.0808,4.0809,0,0,0,0,0,0,0,4.0831,4.0835,4.0876,4.0846,4.0842,4.0825,4.0823,4.0856,4.0829,4.0815,4.081,4.0811,4.0808,4.0815,4.0816,4.0868,4.0805,4.0808,4.0809,4.081,4.098,4.0982,0,0,0,0,0,0,4.0835,4.0834,4.0876,4.0876,4.0829,4.0828,4.0827,4.084,4.0828,4.0824,4.0813,4.0807,4.0812,4.0813,4.0816,4.0899,4.0808,4.081,4.0812,4.0977,4.098,4.0984,0,0,0,0,0,0,4.0834,4.084,4.0876,4.0854,4.0857,4.0832,4.0847,4.0841,4.0848,4.0827,4.0821,4.0825,4.081,4.0812,4.0856,4.0897,4.0811,4.0814,4.0973,4.0978,4.0982,4.1065,0,0,0,0,0,0,4.0833,4.084,4.0866,4.0855,4.0858,4.0917,4.085,4.0843,4.0852,4.0845,4.0836,4.0832,4.0808,4.0853,4.0859,4.0899,4.0816,4.0969,4.0975,4.098,4.1058,4.1072,4.1083,0,0,0,0,0,4.0831,4.0889,4.0868,4.0873,4.0891,4.0919,4.0921,4.0892,4.0856,4.0883,4.0869,4.0833,4.0892,4.0858,4.0864,4.0906,4.0966,4.0973,4.098,4.1053,4.1069,4.1083,0,0,0,0,0,0,4.0905,4.0887,4.0863,4.092,4.0922,4.0907,4.094,4.091,4.0922,4.0914,4.0877,4.0876,4.0926,4.092,4.0883,4.0975,4.0923,4.0931,4.0976,4.0992,4.1004,4.1004,4.0818,0,0,0,0,0,4.0929,4.0953,4.0936,4.0987,4.0989,4.0965,4.0976,4.0953,4.0954,4.0954,4.0944,4.0945,4.0964,4.0978,4.0994,4.1058,4.1055,4.1089,4.1102,4.1112,4.1119,4.1153,4.1168,4.1006,4.1006,4.1006,0,0,4.0976,4.0969,4.0987,4.1002,4.1001,4.1027,4.0966,4.0996,4.1015,4.0958,4.0999,4.0992,4.0992,4.1046,4.107,4.1043,4.1164,4.1121,4.1129,4.1131,4.1162,4.1177,4.1191,4.101,4.101,4.1009,0,0,4.1077,4.1074,4.1117,4.1117,4.1117,4.11,4.1111,4.1101,4.1094,4.1135,4.1094,4.1116,4.115,4.1151,4.1156,4.1259,4.1226,4.1266,4.133,4.1363,4.1376,4.1387,4.1424,4.1438,4.1273,4.1274,4.1274,0,4.1136,4.1174,4.1142,4.1176,4.1184,4.1135,4.1178,4.118,4.1185,4.1191,4.1162,4.1204,4.12,4.1254,4.128,4.1286,4.1296,4.1266,4.1377,4.1388,4.1398,4.1433,4.1447,4.1278,4.1278,4.1277,4.1277,0,4.1247,4.1274,4.1309,4.1316,4.1327,4.1366,4.134,4.1356,4.1333,4.132,4.1363,4.1357,4.1371,4.1383,4.136,4.1434,4.1418,4.1384,4.1331,4.1419,4.1451,4.1464,4.1285,4.1284,4.1282,4.1281,0,0,4.1392,4.1383,4.1396,4.1399,4.1396,4.1416,4.1452,4.1467,4.1482,4.1487,4.1517,4.1547,4.1516,4.1522,4.1499,4.1529,4.1611,4.149,4.149,4.1513,4.1693,4.1719,4.1735,4.1589,4.1592,4.1594,4.1693,0,4.1489,4.1551,4.1525,4.1589,4.1614,4.1569,4.16,4.1602,4.1591,4.1611,4.1598,4.162,4.1577,4.1581,4.1608,4.1595,4.1647,4.1588,4.1616,4.1618,4.1618,4.1751,4.1778,4.1872,4.1705,4.1707,4.1709,0,4.161,4.1622,4.1689,4.1682,4.1692,4.1721,4.1733,4.1753,4.1754,4.1744,4.1752,4.1723,4.1758,4.1706,4.1755,4.1715,4.1726,4.1722,4.1725,4.1726,4.1668,4.1756,4.1901,4.1915,4.1728,4.1727,4.1725,0,4.171,4.1742,4.1787,4.1791,4.1784,4.1806,4.1804,4.1802,4.1814,4.1824,4.1831,4.1846,4.1854,4.1866,4.1842,4.1806,4.1894,4.184,4.1886,4.1887,4.1906,4.1905,4.2055,4.1914,4.1914,4.1913,4.1913,0,4.1821,4.1864,4.1832,4.1859,4.1906,4.1876,4.1923,4.1916,4.1915,4.1941,4.1902,4.1927,4.1894,4.1915,4.1897,4.194,4.1944,4.1936,4.1931,4.194,4.1941,4.1945,4.1938,4.1917,4.1916,4.1915,4.1915,0,4.194,4.192,4.1966,4.1956,4.1955,4.199,4.1982,4.2007,4.1994,4.2026,4.2032,4.2012,4.2035,4.2012,4.2034,4.2022,4.208,4.2065,4.2079,4.2075,4.2123,4.2119,4.2281,4.23,4.2147,4.2148,4.215,0,4.2012,4.2044,4.2038,4.2053,4.2054,4.2078,4.2089,4.2061,4.2074,4.2079,4.2104,4.2124,4.2138,4.2178,4.2165,4.2181,4.2167,4.2222,4.2169,4.2177,4.2167,4.2166,4.2169,4.2233,4.2235,4.2236,4.2237,0,4.2142,4.2131,4.2149,4.2165,4.218,4.219,4.2198,4.2212,4.2183,4.22,4.2224,4.2235,4.2258,4.2279,4.2292,4.229,4.2259,4.2255,4.2266,4.2275,4.2283,4.2279,4.2109,4.2251,4.2249,4.2248,4.2248,4.2247,4.2239,4.2266,4.2267,4.2289,4.2292,4.23,4.2323,4.2314,4.2333,4.235,4.2332,4.2361,4.2363,4.2377,4.2379,4.2401,4.2377,4.2394,4.2398,4.2403,4.241,4.228,4.2403,4.2403,4.2402,4.2402,4.2402,0,4.2367,4.2366,4.2386,4.2399,4.2416,4.2387,4.2394,4.2411,4.2437,4.2441,4.2457,4.2484,4.2505,4.2494,4.2511,4.2531,4.2518,4.2537,4.2535,4.2535,4.243,4.2418,4.2548,4.2548,4.2548,4.2548,4.2548,4.2547,4.2436,4.248,4.2469,4.2514,4.2512,4.2541,4.2548,4.2556,4.2559,4.2592,4.2609,4.2602,4.26,4.2617,4.2635,4.2631,4.2639,4.2663,4.2655,4.2557,4.2542,4.2529,4.2517,4.2665,4.2665,4.2757,4.2758,4.2759]}]]